Time,TemperatureF,DewpointF,PressureIn,WindDirection,WindDirectionDegrees,WindSpeedMPH,WindSpeedGustMPH,Humidity,HourlyPrecipIn,Conditions,Clouds,dailyrainin,SoftwareType,DateUTC
2013-08-27 00:18:00,70.0,65.0,30.13,WNW,294,3.0,5.0,83,0.00,,,0.00,,2013-08-27 04:18:00,
2013-08-27 00:47:00,70.0,65.0,30.12,WNW,293,0.0,3.0,83,0.00,,,0.00,,2013-08-27 04:47:00,
2013-08-27 00:54:00,69.0,64.0,30.12,West,280,2.0,4.0,83,0.00,,,0.00,,2013-08-27 04:54:00,
2013-08-27 01:23:00,69.0,64.0,30.11,West,276,1.0,2.0,84,0.00,,,0.00,,2013-08-27 05:23:00,
2013-08-27 01:52:00,69.0,64.0,30.11,West,276,0.0,2.0,84,0.00,,,0.00,,2013-08-27 05:52:00,
2013-08-27 02:12:00,69.0,64.0,30.11,West,276,0.0,2.0,84,0.00,,,0.00,,2013-08-27 06:12:00,
2013-08-27 02:22:00,69.0,64.0,30.10,WSW,246,1.0,3.0,84,0.00,,,0.00,,2013-08-27 06:22:00,
2013-08-27 02:42:00,68.0,63.0,30.09,WSW,246,1.0,2.0,85,0.00,,,0.00,,2013-08-27 06:42:00,
2013-08-27 02:52:00,69.0,64.0,30.09,WSW,246,0.0,2.0,83,0.00,,,0.00,,2013-08-27 06:52:00,
2013-08-27 03:12:00,68.0,63.0,30.09,WSW,246,0.0,1.0,85,0.00,,,0.00,,2013-08-27 07:12:00,
2013-08-27 03:22:00,68.0,63.0,30.09,WSW,246,0.0,2.0,85,0.00,,,0.00,,2013-08-27 07:22:00,
2013-08-27 03:52:00,68.0,63.0,30.08,WSW,246,2.0,2.0,85,0.00,,,0.00,,2013-08-27 07:52:00,
2013-08-27 04:12:00,68.0,64.0,30.09,WSW,248,0.0,2.0,86,0.00,,,0.00,,2013-08-27 08:12:00,
2013-08-27 04:22:00,67.0,63.0,30.09,WSW,251,0.0,2.0,87,0.00,,,0.00,,2013-08-27 08:22:00,
2013-08-27 04:42:00,68.0,64.0,30.08,WSW,254,2.0,5.0,86,0.00,,,0.00,,2013-08-27 08:42:00,
2013-08-27 04:52:00,69.0,64.0,30.08,West,259,2.0,3.0,85,0.00,,,0.00,,2013-08-27 08:52:00,
2013-08-27 05:11:00,68.0,64.0,30.07,West,259,2.0,3.0,86,0.00,,,0.00,,2013-08-27 09:11:00,
2013-08-27 05:21:00,68.0,64.0,30.07,West,259,1.0,2.0,86,0.00,,,0.00,,2013-08-27 09:21:00,
2013-08-27 05:54:00,68.0,64.0,30.07,West,259,0.0,1.0,87,0.00,,,0.00,,2013-08-27 09:54:00,
2013-08-27 06:14:00,68.0,64.0,30.07,West,259,1.0,4.0,87,0.00,,,0.00,,2013-08-27 10:14:00,
2013-08-27 06:25:00,68.0,64.0,30.07,SSE,162,2.0,5.0,86,0.00,,,0.00,,2013-08-27 10:25:00,
2013-08-27 06:43:00,69.0,65.0,30.08,SSE,163,0.0,2.0,86,0.00,,,0.00,,2013-08-27 10:43:00,
2013-08-27 06:53:00,69.0,64.0,30.08,SSE,162,0.0,5.0,85,0.00,,,0.00,,2013-08-27 10:53:00,
2013-08-27 07:12:00,69.0,64.0,30.09,SSE,162,1.0,2.0,84,0.00,,,0.00,,2013-08-27 11:12:00,
2013-08-27 07:22:00,70.0,65.0,30.09,SSE,163,2.0,4.0,85,0.00,,,0.00,,2013-08-27 11:22:00,
2013-08-27 07:42:00,70.0,65.0,30.09,SSE,168,1.0,4.0,84,0.00,,,0.00,,2013-08-27 11:42:00,
2013-08-27 07:52:00,70.0,65.0,30.08,SSW,202,3.0,4.0,85,0.00,,,0.00,,2013-08-27 11:52:00,
2013-08-27 08:12:00,71.0,66.0,30.08,SW,225,0.0,3.0,84,0.00,,,0.00,,2013-08-27 12:12:00,
2013-08-27 08:22:00,73.0,67.0,30.08,WSW,257,0.0,2.0,81,0.00,,,0.00,,2013-08-27 12:22:00,
2013-08-27 08:42:00,76.0,68.0,30.08,North,350,1.0,4.0,76,0.00,,,0.00,,2013-08-27 12:42:00,
2013-08-27 09:11:00,77.0,68.0,30.08,SW,232,1.0,6.0,73,0.00,,,0.00,,2013-08-27 13:11:00,
2013-08-27 09:22:00,79.0,68.0,30.08,NNW,344,5.0,8.0,69,0.00,,,0.00,,2013-08-27 13:22:00,
2013-08-27 09:42:00,80.0,68.0,30.08,WNW,295,5.0,11.0,68,0.00,,,0.00,,2013-08-27 13:42:00,
2013-08-27 09:52:00,80.0,68.0,30.07,WSW,251,2.0,7.0,68,0.00,,,0.00,,2013-08-27 13:52:00,
2013-08-27 10:11:00,81.0,69.0,30.07,NNW,327,2.0,10.0,66,0.00,,,0.00,,2013-08-27 14:11:00,
2013-08-27 10:22:00,82.0,69.0,30.07,WNW,286,5.0,10.0,65,0.00,,,0.00,,2013-08-27 14:22:00,
2013-08-27 10:42:00,82.0,69.0,30.07,NNW,327,6.0,10.0,64,0.00,,,0.00,,2013-08-27 14:42:00,
2013-08-27 10:53:00,83.0,69.0,30.07,NW,304,5.0,12.0,62,0.00,,,0.00,,2013-08-27 14:53:00,
2013-08-27 11:11:00,83.0,69.0,30.07,West,273,3.0,11.0,63,0.00,,,0.00,,2013-08-27 15:11:00,
2013-08-27 11:22:00,84.0,69.0,30.06,WNW,292,6.0,11.0,61,0.00,,,0.00,,2013-08-27 15:22:00,
2013-08-27 11:45:00,87.0,69.0,30.06,NW,317,5.0,9.0,56,0.00,,,0.00,,2013-08-27 15:45:00,
2013-08-27 12:17:00,87.0,68.0,30.06,WNW,297,1.0,5.0,54,0.00,,,0.00,,2013-08-27 16:17:00,
2013-08-27 12:28:00,86.0,67.0,30.06,WNW,297,5.0,10.0,54,0.00,,,0.00,,2013-08-27 16:28:00,
2013-08-27 12:46:00,86.0,69.0,30.06,NNW,329,2.0,8.0,57,0.00,,,0.00,,2013-08-27 16:46:00,
2013-08-27 12:55:00,86.0,68.0,30.09,WSW,251,4.0,11.0,56,0.00,,,0.00,,2013-08-27 16:55:00,
2013-08-27 13:13:00,86.0,68.0,30.09,WNW,299,5.0,12.0,55,0.00,,,0.00,,2013-08-27 17:13:00,
2013-08-27 13:23:00,88.0,68.0,30.09,WNW,286,4.0,11.0,52,0.00,,,0.00,,2013-08-27 17:23:00,
2013-08-27 13:52:00,89.0,68.0,30.07,East,82,4.0,10.0,50,0.00,,,0.00,,2013-08-27 17:52:00,
2013-08-27 14:12:00,89.0,67.0,30.06,NW,312,3.0,13.0,49,0.00,,,0.00,,2013-08-27 18:12:00,
2013-08-27 14:22:00,89.0,68.0,30.06,ENE,73,5.0,14.0,50,0.00,,,0.00,,2013-08-27 18:22:00,
2013-08-27 14:42:00,88.0,68.0,30.06,NW,306,3.0,7.0,51,0.00,,,0.00,,2013-08-27 18:42:00,
2013-08-27 14:53:00,88.0,68.0,30.06,WNW,288,4.0,12.0,52,0.00,,,0.00,,2013-08-27 18:53:00,
2013-08-27 15:12:00,88.0,68.0,30.06,NE,37,1.0,11.0,52,0.00,,,0.00,,2013-08-27 19:12:00,
2013-08-27 15:22:00,88.0,69.0,30.05,North,355,2.0,11.0,53,0.00,,,0.00,,2013-08-27 19:22:00,
2013-08-27 15:52:00,88.0,68.0,30.04,NNE,28,4.0,7.0,52,0.00,,,0.00,,2013-08-27 19:52:00,
2013-08-27 16:12:00,87.0,68.0,30.03,West,271,7.0,10.0,53,0.00,,,0.00,,2013-08-27 20:12:00,